Regional Weather Roundup
Issued by NWS

Home | Current Version | Previous Version | Graphics & Text | Print | Product List | Glossary On
Versions: 1 2 3 4 5 6 7 8 9 10 11 12 13 14 15 16 17 18 19 20 21 22 23 24 25 26 27 28 29 30 31 32 33 34 35 36 37 38 39 40 41 42 43 44 45 46 47 48 49 50
000
ASUS43 KDMX 221207
RWRIA

WEATHER ROUNDUP FOR IOWA
NATIONAL WEATHER SERVICE DES MOINES IA
700 AM CDT FRI MAY 22 2015

NOTE: "FAIR" INDICATES FEW OR NO CLOUDS BELOW 12,000 FEET WITH NO
SIGNIFICANT WEATHER AND/OR OBSTRUCTIONS TO VISIBILITY.

* - THESE STATIONS ARE NOT NWS STATIONS...THUS NOT UNDER NWS
QUALITY CONTROL.  THEY ALSO DO NOT REPORT WEATHER SUCH
AS PRECIPITATION OR FOG.

IAZ001>003-012>014-020>022-031>034-043>046-221300-
   NORTHWEST IOWA

CITY           SKY/WX    TMP DP  RH WIND       PRES   REMARKS
CARROLL *      SUNNY     52  41  66 NW6       30.19S
CHEROKEE *     SUNNY     41  41 100 CALM      30.20R FOG
DENISON *      SUNNY     48  45  87 CALM      30.20R
LE MARS *      CLEAR     45  43  93 CALM      30.21S
ORANGE CITY *  SUNNY     48  39  71 CALM      30.20R
SHELDON *      SUNNY     43  39  87 CALM      30.19R
SIOUX CITY       N/A     49  38  65 CALM      30.21R
6HR MIN TEMP:  42; 6HR MAX TEMP:  54;

SPENCER        SUNNY     45  40  82 CALM      30.20R
6HR MIN TEMP:  40; 6HR MAX TEMP:  49;

STORM LAKE *   SUNNY     50  41  71 W8        30.20S
$$

IAZ055>058-069>071-079>083-090>094-221300-
   SOUTHWEST IOWA

CITY           SKY/WX    TMP DP  RH WIND       PRES   REMARKS
ATLANTIC *     SUNNY     45  43  93 CALM      30.21S
AUDUBON *      SUNNY     50  43  76 CALM      30.22R
CLARINDA *     SUNNY     46  46 100 CALM      30.24R
COUNCIL BLFS * CLEAR     52  48  87 CALM      30.21S
CRESTON *      SUNNY     50  43  76 W7        30.21S
HARLAN  *      SUNNY     46  46 100 CALM      30.24S
LAMONI         SUNNY     53  44  71 W8        30.21R
6HR MIN TEMP:  50; 6HR MAX TEMP:  58;

RED OAK *      SUNNY     46  45  93 CALM      30.22S
SHENANDOAH *   CLEAR     46  46 100 CALM      30.23S
$$

IAZ047>049-059>061-072>074-084-221300-
   CENTRAL IOWA

CITY           SKY/WX    TMP DP  RH WIND       PRES   REMARKS
AMES           SUNNY     47  42  83 CALM      30.18R
6HR MIN TEMP:  42; 6HR MAX TEMP:  53;

ANKENY *       SUNNY     52  45  76 CALM      30.19R
CHARITON *     SUNNY     52  45  76 W7        30.19S
DES MOINES     MOSUNNY   53  42  66 NW5       30.19R
6HR MIN TEMP:  50; 6HR MAX TEMP:  56;

GRINNELL*      SUNNY     46  43  87 NW5       30.18S
KNOXVILLE *    SUNNY     50  43  76 W7        30.17S
MARSHALLTOWN   SUNNY     46  39  76 NW6       30.17R
6HR MIN TEMP:  42; 6HR MAX TEMP:  49;

PELLA *        SUNNY     51  47  84 W3        30.20R
PERRY *          N/A     50  43  76 NW5       30.20R
$$

IAZ004>006-015-016-023>025-035-036-221300-
   NORTH CENTRAL IOWA

CITY           SKY/WX    TMP DP  RH WIND       PRES   REMARKS
ALGONA *       SUNNY     50  37  62 N6        30.20R
CLARION *      SUNNY     46  39  76 N3        30.19R
ESTHERVILLE    SUNNY     47  37  68 NW6       30.19R
6HR MIN TEMP:  42; 6HR MAX TEMP:  47;

FORT DODGE *   SUNNY     45  39  81 CALM      30.19S
MASON CITY     SUNNY     46  39  76 W6        30.20R
6HR MIN TEMP:  40; 6HR MAX TEMP:  47;

FOREST CITY *  SUNNY     41  37  87 CALM      30.19R
IOWA FALLS *     N/A     48  37  66 W5        30.20R
$$

IAZ007>011-017>019-026>030-037>042-050>054-066-221300-
   NORTHEAST IOWA

CITY           SKY/WX    TMP DP  RH WIND       PRES   REMARKS
CEDAR RAPIDS   SUNNY     48  41  76 NW5       30.16R
6HR MIN TEMP:  42; 6HR MAX TEMP:  51;

CHARLES CITY * SUNNY     46  41  81 CALM      30.19R
CLINTON *      SUNNY     46  39  76 NW5       30.19R
DECORAH *      SUNNY     50  37  62 CALM      30.17R
DUBUQUE        SUNNY     50  43  77 CALM      30.17R
6HR MIN TEMP:  41; 6HR MAX TEMP:  54;

MONTICELLO *   SUNNY     45  45 100 CALM      30.17R
OELWEIN *      SUNNY     48  41  76 N3        30.19R
WATERLOO       SUNNY     46  43  89 CALM      30.18R
6HR MIN TEMP:  39; 6HR MAX TEMP:  50;

$$

IAZ064-065-067-068-078-221300-
   EAST CENTRAL IOWA

CITY           SKY/WX    TMP DP  RH WIND       PRES   REMARKS
DAVENPORT      SUNNY     49  40  71 W3        30.17R
6HR MIN TEMP:  44; 6HR MAX TEMP:  51;

IOWA CITY      SUNNY     49  41  74 CALM      30.18R
6HR MIN TEMP:  44; 6HR MAX TEMP:  53;

MT. PLEASANT * SUNNY     52  44  74 W3        30.18R
MUSCATINE *    SUNNY     54  43  66 CALM      30.17R
QUAD CITIES    SUNNY     50  44  80 CALM      30.16R
6HR MIN TEMP:  44; 6HR MAX TEMP:  54;

$$

IAZ062-063-075>077-085>089-095>099-221300-
   SOUTHEAST IOWA

CITY           SKY/WX    TMP DP  RH WIND       PRES   REMARKS
BURLINGTON     SUNNY     53  46  77 NW5       30.17R
6HR MIN TEMP:  51; 6HR MAX TEMP:  57;

FAIRFIELD *    SUNNY     52  45  76 CALM      30.18R
FORT MADISON * SUNNY     52  46  82 W7        30.19R
KEOKUK *       SUNNY     54  46  76 W6        30.18R
OSKALOOSA *      N/A     49  44  82 W5        30.19R
CENTERVILLE *  SUNNY     52  52 100 W7        30.21R
OTTUMWA        SUNNY     51  44  77 W6        30.18R
6HR MIN TEMP:  47; 6HR MAX TEMP:  54;

WASHINGTON *   SUNNY     50  45  81 W6        30.19R
$$

ABBREVIATIONS USED IN REMARKS
   TC - TEMPERATURES IN CELSIUS
  WCI - WIND CHILL INDEX
   HX - HEAT INDEX
  VSB - VISIBILITY
$$



USA.gov is the U.S. government's official web portal to all federal, state and local government web resources and services.